YMA7555 RJOB-RKPC

Flight info

Callsign YMA7555
Flight time 1h 7m
Altitude 32000
Route WASYU MARCO KATTA DGC TAMNA
Aircraft B738/M-VGDW/C

Departure

Time 2026-04-30 09:33
Airport Okayama Momotaro Airport (RJOB)

Arrival

Time 2026-04-30 10:40
Airport Jeju International Airport (RKPC)
Time Latitude Longitude Altitude Speed Heading
2026-04-30 09:24 34.75927 133.85246 806 ft 0 kts 327°
2026-04-30 09:28 34.75901 133.85268 806 ft 12 kts 327°
2026-04-30 09:28 34.75897 133.85273 806 ft 1 kts 335°
2026-04-30 09:28 34.75842 133.85311 806 ft 16 kts 326°
2026-04-30 09:28 34.75823 133.85352 806 ft 4 kts 242°
2026-04-30 09:29 34.75825 133.85357 806 ft 0 kts 240°
2026-04-30 09:29 34.75817 133.85342 806 ft 13 kts 233°
2026-04-30 09:29 34.75704 133.85176 806 ft 37 kts 239°
2026-04-30 09:29 34.75543 133.84845 807 ft 54 kts 238°
2026-04-30 09:30 34.75331 133.84415 806 ft 63 kts 240°
2026-04-30 09:30 34.75177 133.84098 806 ft 28 kts 230°
2026-04-30 09:30 34.75095 133.84087 807 ft 0 kts 149°
2026-04-30 09:31 34.75080 133.84097 807 ft 12 kts 152°
2026-04-30 09:31 34.75030 133.84154 809 ft 15 kts 115°
2026-04-30 09:31 34.75071 133.84292 809 ft 39 kts 60°
2026-04-30 09:32 34.75357 133.84861 812 ft 116 kts 60°
2026-04-30 09:32 34.75895 133.85938 812 ft 179 kts 59°
2026-04-30 09:32 34.76582 133.87397 1137 ft 214 kts 64°
2026-04-30 09:32 34.76962 133.89243 1339 ft 233 kts 92°
2026-04-30 09:33 34.76447 133.91039 1381 ft 223 kts 131°
2026-04-30 09:33 34.75169 133.91994 1458 ft 219 kts 171°
2026-04-30 09:33 34.73669 133.91783 1678 ft 216 kts 203°
2026-04-30 09:33 34.72518 133.90665 2138 ft 220 kts 233°
2026-04-30 09:34 34.71546 133.89175 2803 ft 231 kts 232°
2026-04-30 09:34 34.70505 133.87616 3453 ft 245 kts 232°
2026-04-30 09:34 34.69413 133.85940 4026 ft 260 kts 233°
2026-04-30 09:34 34.68299 133.84196 4564 ft 262 kts 233°
2026-04-30 09:35 34.67197 133.82430 5078 ft 264 kts 234°
2026-04-30 09:35 34.66093 133.80635 5606 ft 266 kts 234°
2026-04-30 09:35 34.64976 133.78827 6128 ft 269 kts 234°
2026-04-30 09:35 34.63868 133.76990 6657 ft 270 kts 235°
2026-04-30 09:36 34.62764 133.75128 7182 ft 273 kts 235°
2026-04-30 09:36 34.61673 133.73271 7698 ft 266 kts 231°
2026-04-30 09:36 34.60586 133.71438 8184 ft 270 kts 231°
2026-04-30 09:36 34.59471 133.69588 8728 ft 273 kts 231°
2026-04-30 09:37 34.58361 133.67702 9288 ft 276 kts 232°
2026-04-30 09:37 34.57241 133.65811 9825 ft 276 kts 232°
2026-04-30 09:37 34.56122 133.63915 10307 ft 278 kts 233°
2026-04-30 09:37 34.54989 133.61967 10803 ft 287 kts 235°
2026-04-30 09:38 34.54027 133.59804 11257 ft 298 kts 246°
2026-04-30 09:38 34.53253 133.57427 11757 ft 307 kts 247°
2026-04-30 09:38 34.52722 133.55817 12099 ft 313 kts 247°
2026-04-30 09:38 34.51916 133.53326 12577 ft 323 kts 247°
2026-04-30 09:39 34.51061 133.50758 13114 ft 334 kts 248°
2026-04-30 09:39 34.50211 133.48057 13580 ft 350 kts 250°
2026-04-30 09:39 34.49350 133.45250 14025 ft 359 kts 250°
2026-04-30 09:39 34.48459 133.42422 14456 ft 358 kts 249°
2026-04-30 09:40 34.47547 133.39616 14873 ft 359 kts 249°
2026-04-30 09:40 34.46874 133.36709 15252 ft 362 kts 263°
2026-04-30 09:40 34.46627 133.33662 15688 ft 363 kts 265°
2026-04-30 09:40 34.46400 133.30607 16127 ft 366 kts 265°
2026-04-30 09:41 34.46162 133.27524 16536 ft 369 kts 265°
2026-04-30 09:41 34.45925 133.24409 16892 ft 372 kts 265°
2026-04-30 09:41 34.45687 133.21282 17239 ft 373 kts 265°
2026-04-30 09:41 34.45446 133.18150 17582 ft 374 kts 265°
2026-04-30 09:42 34.45205 133.14998 17922 ft 377 kts 265°
2026-04-30 09:42 34.44964 133.11827 18251 ft 379 kts 265°
2026-04-30 09:42 34.44718 133.08633 18590 ft 382 kts 265°
2026-04-30 09:42 34.44471 133.05422 18924 ft 385 kts 265°
2026-04-30 09:43 34.44226 133.02188 19254 ft 386 kts 265°
2026-04-30 09:43 34.43959 132.98943 19579 ft 387 kts 264°
2026-04-30 09:43 34.43664 132.95696 19905 ft 388 kts 264°
2026-04-30 09:43 34.43260 132.92463 20209 ft 391 kts 253°
2026-04-30 09:44 34.42162 132.89446 20533 ft 393 kts 242°
2026-04-30 09:44 34.40823 132.86552 20889 ft 395 kts 240°
2026-04-30 09:44 34.39459 132.83646 21200 ft 398 kts 240°
2026-04-30 09:44 34.38087 132.80720 21508 ft 400 kts 240°
2026-04-30 09:45 34.36727 132.77774 21812 ft 402 kts 242°
2026-04-30 09:45 34.35387 132.74792 22115 ft 404 kts 242°
2026-04-30 09:45 34.34048 132.71804 22430 ft 405 kts 242°
2026-04-30 09:45 34.32698 132.68798 22734 ft 407 kts 242°
2026-04-30 09:46 34.31348 132.65789 23041 ft 408 kts 242°
2026-04-30 09:46 34.29990 132.62766 23342 ft 410 kts 242°
2026-04-30 09:46 34.28624 132.59730 23641 ft 413 kts 242°
2026-04-30 09:46 34.27233 132.56681 23940 ft 415 kts 241°
2026-04-30 09:47 34.25823 132.53664 23936 ft 401 kts 238°
2026-04-30 09:47 34.24476 132.50868 24200 ft 369 kts 238°
2026-04-30 09:47 34.23215 132.48272 24487 ft 346 kts 238°
2026-04-30 09:47 34.22037 132.45844 24764 ft 337 kts 238°
2026-04-30 09:48 34.20850 132.43349 25074 ft 340 kts 239°
2026-04-30 09:48 34.19704 132.40877 25379 ft 345 kts 239°
2026-04-30 09:48 34.18526 132.38333 25637 ft 350 kts 239°
2026-04-30 09:48 34.17327 132.35746 25870 ft 356 kts 239°
2026-04-30 09:49 34.16110 132.33120 26112 ft 361 kts 239°
2026-04-30 09:49 34.14905 132.30445 26351 ft 366 kts 240°
2026-04-30 09:49 34.13747 132.27687 26588 ft 371 kts 242°
2026-04-30 09:49 34.12581 132.24897 26824 ft 373 kts 239°
2026-04-30 09:50 34.11286 132.22172 27070 ft 375 kts 238°
2026-04-30 09:50 34.09967 132.19453 27300 ft 375 kts 238°
2026-04-30 09:50 34.08688 132.16708 27541 ft 375 kts 239°
2026-04-30 09:50 34.07540 132.13871 27763 ft 380 kts 247°
2026-04-30 09:51 34.06850 132.10772 27997 ft 385 kts 254°
2026-04-30 09:51 34.06351 132.07592 28254 ft 386 kts 255°
2026-04-30 09:51 34.05870 132.04408 28505 ft 387 kts 255°
2026-04-30 09:51 34.05384 132.01205 28747 ft 389 kts 255°
2026-04-30 09:52 34.04894 131.97991 28994 ft 391 kts 255°
2026-04-30 09:52 34.04402 131.94767 29229 ft 392 kts 255°
2026-04-30 09:52 34.03910 131.91533 29456 ft 393 kts 255°
2026-04-30 09:52 34.03412 131.88288 29673 ft 394 kts 254°
2026-04-30 09:53 34.02878 131.85047 29894 ft 394 kts 254°
2026-04-30 09:53 34.02350 131.81795 30088 ft 396 kts 255°
2026-04-30 09:53 34.01899 131.78516 30286 ft 397 kts 256°
2026-04-30 09:53 34.01424 131.75249 30505 ft 395 kts 253°
2026-04-30 09:54 34.00849 131.72022 30723 ft 393 kts 253°
2026-04-30 09:54 34.00287 131.68795 30937 ft 395 kts 255°
2026-04-30 09:54 33.99753 131.65545 31151 ft 395 kts 253°
2026-04-30 09:54 33.99172 131.62320 31368 ft 393 kts 253°
2026-04-30 09:55 33.98585 131.59104 31582 ft 393 kts 253°
2026-04-30 09:55 33.98000 131.55893 31790 ft 392 kts 253°
2026-04-30 09:55 33.96845 131.49513 31890 ft 397 kts 253°
2026-04-30 09:56 33.95768 131.42984 31888 ft 397 kts 254°
2026-04-30 09:56 33.94707 131.36479 31886 ft 395 kts 254°
2026-04-30 09:57 33.93674 131.29986 31881 ft 395 kts 255°
2026-04-30 09:57 33.92118 131.23737 31888 ft 387 kts 245°
2026-04-30 09:58 33.90102 131.17719 31887 ft 388 kts 245°
2026-04-30 09:58 33.88125 131.11743 31884 ft 388 kts 246°
2026-04-30 09:59 33.84588 130.99458 31884 ft 388 kts 247°
2026-04-30 10:00 33.81903 130.90338 31885 ft 386 kts 247°
2026-04-30 10:01 33.77942 130.74966 31894 ft 384 kts 245°
2026-04-30 10:02 33.75055 130.65972 31889 ft 385 kts 246°
2026-04-30 10:02 33.73265 130.59915 31888 ft 384 kts 247°
2026-04-30 10:03 33.71500 130.53865 31887 ft 384 kts 248°
2026-04-30 10:03 33.69479 130.47948 31876 ft 381 kts 242°
2026-04-30 10:04 33.67152 130.42242 31892 ft 380 kts 242°
2026-04-30 10:04 33.64949 130.36420 31874 ft 385 kts 251°
2026-04-30 10:04 33.64679 130.33184 31893 ft 399 kts 267°
2026-04-30 10:05 33.70575 130.16532 31914 ft 413 kts 278°
2026-04-30 10:05 33.72322 130.09940 31897 ft 414 kts 277°
2026-04-30 10:06 33.74071 130.03340 31893 ft 415 kts 278°
2026-04-30 10:06 33.75475 129.96749 31894 ft 406 kts 272°
2026-04-30 10:07 33.76458 129.90086 31885 ft 401 kts 268°
2026-04-30 10:07 33.76721 129.83446 31886 ft 396 kts 263°
2026-04-30 10:08 33.76746 129.76837 31888 ft 395 kts 262°
2026-04-30 10:08 33.76681 129.70237 31883 ft 395 kts 262°
2026-04-30 10:09 33.76543 129.63648 31896 ft 394 kts 261°
2026-04-30 10:09 33.76351 129.57073 31892 ft 394 kts 261°
2026-04-30 10:10 33.76144 129.50505 31903 ft 393 kts 261°
2026-04-30 10:10 33.75932 129.43941 31905 ft 393 kts 261°
2026-04-30 10:11 33.75715 129.37386 31921 ft 393 kts 261°
2026-04-30 10:11 33.75493 129.30833 31921 ft 393 kts 261°
2026-04-30 10:12 33.75265 129.24277 31931 ft 393 kts 261°
2026-04-30 10:12 33.75033 129.17727 31926 ft 393 kts 261°
2026-04-30 10:13 33.74795 129.11173 31933 ft 393 kts 261°
2026-04-30 10:13 33.74550 129.04617 31929 ft 393 kts 261°
2026-04-30 10:14 33.74139 128.98093 31942 ft 390 kts 258°
2026-04-30 10:14 33.73114 128.88423 32054 ft 389 kts 257°
2026-04-30 10:15 33.72746 128.85158 31601 ft 397 kts 256°
2026-04-30 10:15 33.72291 128.81934 31222 ft 396 kts 255°
2026-04-30 10:15 33.71771 128.78697 30838 ft 394 kts 254°
2026-04-30 10:15 33.71233 128.75491 30457 ft 389 kts 254°
2026-04-30 10:16 33.70696 128.72320 30088 ft 386 kts 254°
2026-04-30 10:16 33.70156 128.69164 29668 ft 388 kts 254°
2026-04-30 10:16 33.69603 128.65978 29235 ft 392 kts 254°
2026-04-30 10:17 33.68462 128.59538 28401 ft 397 kts 254°
2026-04-30 10:17 33.67281 128.53048 27508 ft 392 kts 248°
2026-04-30 10:17 33.65960 128.50277 27009 ft 378 kts 231°
2026-04-30 10:18 33.64266 128.47944 26983 ft 365 kts 232°
2026-04-30 10:18 33.62771 128.45494 26975 ft 365 kts 238°
2026-04-30 10:18 33.61532 128.42818 26963 ft 368 kts 243°
2026-04-30 10:19 33.59673 128.37075 26959 ft 370 kts 249°
2026-04-30 10:19 33.58897 128.34153 26956 ft 362 kts 251°
2026-04-30 10:19 33.58264 128.31299 26948 ft 348 kts 256°
2026-04-30 10:19 33.58105 128.28443 26944 ft 339 kts 265°
2026-04-30 10:20 33.58189 128.25674 26930 ft 326 kts 266°
2026-04-30 10:20 33.58383 128.20321 26300 ft 317 kts 266°
2026-04-30 10:20 33.58474 128.17692 25974 ft 314 kts 266°
2026-04-30 10:21 33.58560 128.15090 25654 ft 311 kts 266°
2026-04-30 10:21 33.58644 128.12506 25330 ft 310 kts 266°
2026-04-30 10:21 33.58722 128.09932 25007 ft 308 kts 266°
2026-04-30 10:21 33.58795 128.07369 24687 ft 306 kts 266°
2026-04-30 10:22 33.58861 128.04791 24095 ft 313 kts 266°
2026-04-30 10:22 33.58924 128.02160 23651 ft 316 kts 267°
2026-04-30 10:22 33.59013 127.99537 23274 ft 314 kts 267°
2026-04-30 10:22 33.59107 127.96934 22934 ft 310 kts 267°
2026-04-30 10:23 33.59198 127.94365 22592 ft 307 kts 267°
2026-04-30 10:23 33.59288 127.91844 22116 ft 308 kts 267°
2026-04-30 10:23 33.59380 127.89281 21723 ft 307 kts 267°
2026-04-30 10:23 33.59460 127.86739 21399 ft 303 kts 266°
2026-04-30 10:24 33.59508 127.84227 21077 ft 301 kts 266°
2026-04-30 10:24 33.59553 127.81726 20761 ft 299 kts 266°
2026-04-30 10:24 33.59600 127.79227 20417 ft 299 kts 266°
2026-04-30 10:24 33.59644 127.76693 19796 ft 307 kts 266°
2026-04-30 10:25 33.59686 127.74996 19534 ft 308 kts 267°
2026-04-30 10:25 33.59797 127.71580 19093 ft 305 kts 267°
2026-04-30 10:25 33.59851 127.69897 18866 ft 304 kts 267°
2026-04-30 10:25 33.59958 127.66489 18259 ft 308 kts 267°
2026-04-30 10:26 33.60009 127.64790 17989 ft 307 kts 267°
2026-04-30 10:26 33.60083 127.62241 17644 ft 305 kts 267°
2026-04-30 10:26 33.60153 127.59715 17262 ft 302 kts 267°
2026-04-30 10:26 33.60234 127.56297 16561 ft 307 kts 267°
2026-04-30 10:27 33.60267 127.54602 16335 ft 306 kts 267°
2026-04-30 10:27 33.60314 127.52061 15998 ft 303 kts 267°
2026-04-30 10:27 33.60358 127.49525 15524 ft 306 kts 267°
2026-04-30 10:27 33.60395 127.46973 15160 ft 307 kts 267°
2026-04-30 10:28 33.60451 127.44405 14667 ft 313 kts 268°
2026-04-30 10:28 33.60515 127.41773 14229 ft 318 kts 268°
2026-04-30 10:28 33.60567 127.39101 13870 ft 324 kts 268°
2026-04-30 10:28 33.60614 127.36350 13367 ft 335 kts 269°
2026-04-30 10:29 33.60688 127.33548 12910 ft 336 kts 269°
2026-04-30 10:29 33.60767 127.30729 12418 ft 339 kts 269°
2026-04-30 10:29 33.60836 127.27907 12003 ft 338 kts 269°
2026-04-30 10:29 33.60900 127.25094 11572 ft 336 kts 269°
2026-04-30 10:30 33.60959 127.22294 11103 ft 335 kts 269°
2026-04-30 10:30 33.61009 127.19532 10820 ft 325 kts 269°
2026-04-30 10:30 33.61055 127.16872 10495 ft 314 kts 269°
2026-04-30 10:30 33.61096 127.14289 10172 ft 306 kts 269°
2026-04-30 10:31 33.61142 127.11773 9846 ft 298 kts 270°
2026-04-30 10:31 33.61209 127.09314 9499 ft 291 kts 270°
2026-04-30 10:31 33.61267 127.06926 9206 ft 283 kts 270°
2026-04-30 10:31 33.61320 127.04592 8892 ft 277 kts 270°
2026-04-30 10:32 33.61365 127.02295 8600 ft 275 kts 270°
2026-04-30 10:32 33.61404 127.00009 8297 ft 273 kts 270°
2026-04-30 10:32 33.61442 126.97744 7986 ft 269 kts 270°
2026-04-30 10:32 33.61475 126.95529 7696 ft 263 kts 270°
2026-04-30 10:33 33.61502 126.93332 7391 ft 263 kts 270°
2026-04-30 10:33 33.61552 126.91140 7085 ft 263 kts 271°
2026-04-30 10:33 33.61600 126.88965 6766 ft 259 kts 271°
2026-04-30 10:33 33.61639 126.86956 6473 ft 256 kts 271°
2026-04-30 10:34 33.61672 126.84845 6197 ft 250 kts 271°
2026-04-30 10:34 33.61700 126.82779 5946 ft 244 kts 272°
2026-04-30 10:34 33.61738 126.80770 5683 ft 239 kts 272°
2026-04-30 10:34 33.61776 126.78782 5430 ft 238 kts 273°
2026-04-30 10:35 33.61821 126.76804 5175 ft 237 kts 273°
2026-04-30 10:35 33.61866 126.74825 4923 ft 237 kts 274°
2026-04-30 10:35 33.61916 126.72845 4648 ft 237 kts 274°
2026-04-30 10:35 33.61944 126.70873 4359 ft 237 kts 267°
2026-04-30 10:36 33.61386 126.69013 3969 ft 239 kts 240°
2026-04-30 10:36 33.60527 126.67369 3869 ft 227 kts 240°
2026-04-30 10:36 33.59720 126.65785 3576 ft 218 kts 241°
2026-04-30 10:36 33.58946 126.64270 3307 ft 208 kts 241°
2026-04-30 10:37 33.58208 126.62823 3022 ft 198 kts 240°
2026-04-30 10:37 33.57495 126.61455 2749 ft 189 kts 241°
2026-04-30 10:37 33.56831 126.60163 2477 ft 180 kts 241°
2026-04-30 10:37 33.56185 126.58920 2230 ft 171 kts 241°
2026-04-30 10:38 33.55571 126.57740 1959 ft 165 kts 241°
2026-04-30 10:38 33.54976 126.56592 1723 ft 158 kts 242°
2026-04-30 10:38 33.54413 126.55485 1454 ft 153 kts 242°
2026-04-30 10:38 33.53858 126.54422 1215 ft 147 kts 240°
2026-04-30 10:39 33.53327 126.53395 985 ft 143 kts 242°
2026-04-30 10:39 33.52818 126.52406 733 ft 137 kts 242°
2026-04-30 10:39 33.52324 126.51452 482 ft 133 kts 240°
2026-04-30 10:39 33.51853 126.50495 275 ft 135 kts 243°
2026-04-30 10:40 33.51391 126.49544 128 ft 124 kts 236°
2026-04-30 10:40 33.50968 126.48744 92 ft 84 kts 241°
2026-04-30 10:40 33.50869 126.48519 92 ft 31 kts 244°
2026-04-30 10:40 33.50774 126.48413 93 ft 12 kts 142°
2026-04-30 10:41 33.50762 126.48532 91 ft 23 kts 90°
2026-04-30 10:41 33.50792 126.48790 90 ft 28 kts 63°
2026-04-30 10:41 33.50922 126.49039 92 ft 36 kts 60°
2026-04-30 10:41 33.50887 126.49217 93 ft 15 kts 119°
2026-04-30 10:42 33.50823 126.49301 93 ft 11 kts 162°
2026-04-30 10:42 33.50778 126.49302 93 ft 0 kts 180°
2026-04-30 10:42 33.50776 126.49302 90 ft 0 kts 180°